Theta_e
316 316 317 320 318 318 318 319 321 325 332 333 335 336 337 337 338 336 333 334 334 337 340 340 340 338 336 336 338 338 338 338 337
310 311 311 314 318 317 317 318 319 320 322 325 332 334 336 337 336 336 332 332 333 335 340 340 339 339 337 336 336 336 336 336 336
305 305 306 309 313 317 318 317 318 319 319 320 321 327 332 334 335 336 336 335 331 333 339 339 339 339 338 336 336 336 335 335 335
301 301 303 305 309 312 316 319 317 318 319 319 319 320 322 328 330 332 333 334 336 338 337 337 340 339 339 337 337 336 334 334 334
298 298 298 304 305 308 311 313 317 319 318 318 314 314 315 312 326 320 326 328 332 338 337 337 340 340 339 337 337 336 335 335 333
296 296 299 301 303 303 307 309 311 313 315 313 311 306 307 306 306 320 312 321 327 332 337 338 339 339 339 338 337 336 336 334 333
297 298 298 299 299 299 301 303 305 306 309 308 306 306 306 306 305 305 310 314 320 331 333 334 337 339 340 339 337 336 334 334 334
296 297 297 297 297 296 297 298 299 300 303 305 305 305 305 305 305 305 305 309 316 321 326 332 335 338 340 339 339 336 335 334 333
296 296 297 297 296 297 297 298 298 299 302 304 305 306 305 305 304 304 304 305 312 316 319 323 327 335 338 339 339 338 336 335 334
296 296 296 296 297 297 296 296 298 298 299 301 305 305 305 304 304 304 304 304 308 311 315 317 320 328 334 326 329 337 337 336 333
295 295 296 296 296 296 297 297 297 298 298 300 302 304 304 304 304 304 304 303 303 307 310 311 313 315 316 317 316 324 330 337 335
296 296 296 296 296 296 297 297 297 296 297 298 300 303 303 304 304 304 304 303 303 303 303 307 310 311 312 314 313 315 322 337 335
295 295 296 296 296 296 296 296 297 297 297 297 298 300 303 304 304 303 303 303 302 303 303 303 306 307 308 309 312 311 317 325 327
296 296 296 296 296 295 296 296 296 297 297 297 297 298 301 303 303 303 303 302 303 303 303 303 302 302 307 309 311 312 313 320 326
297 296 296 296 296 296 295 295 296 296 297 297 297 297 298 300 302 303 302 303 302 301 301 302 302 302 305 312 313 315 315 314 323
297 297 297 297 296 296 296 295 295 296 297 296 296 297 297 298 302 302 301 299 299 300 301 301 300 300 302 304 306 317 318 321 316
297 297 297 297 297 296 296 295 295 295 296 296 295 295 297 298 300 299 299 299 299 301 300 300 300 300 301 302 302 303 313 316 319
297 297 297 297 297 297 296 295 295 294 295 295 296 294 295 295 298 298 299 299 299 300 299 299 299 301 301 301 302 305 306 310 312
295 296 297 297 297 297 297 296 295 295 294 295 296 296 297 296 296 297 299 299 299 300 299 299 299 300 301 301 306 303 303 306 308
295 296 296 297 297 297 297 297 296 296 295 296 296 296 297 297 295 295 295 297 299 299 299 299 299 298 300 302 302 302 302 301 305
Wind_Speed
19 19 20 17 17 16 16 15 14 14 13 12 11 12 15 16 18 18 16 17 16 14 13 14 13 12 13 13 13 12 11 10 10
20 20 21 19 18 16 17 16 15 14 13 13 14 13 9 9 18 19 20 19 19 17 16 16 16 15 14 14 14 13 13 12 13
19 20 21 20 18 17 16 15 16 15 15 14 15 16 15 12 10 12 17 21 21 20 19 18 19 18 17 17 15 14 13 14 15
22 21 20 18 17 18 18 17 16 15 14 13 11 12 14 15 13 13 14 15 19 20 20 18 22 21 20 19 18 17 16 16 16
23 23 23 19 18 18 17 18 16 16 14 11 10 10 12 12 16 10 16 14 14 16 20 19 24 24 23 22 21 20 19 18 18
27 26 20 20 20 19 17 16 16 17 14 13 15 14 11 11 9 14 11 13 13 13 16 22 24 25 25 24 23 22 22 21 20
25 23 22 20 21 22 19 18 16 17 19 17 16 16 14 12 10 6 9 9 8 8 12 21 24 26 27 27 25 25 25 24 23
25 24 23 23 24 22 20 19 17 18 17 17 18 16 14 14 12 9 6 6 6 5 5 11 16 26 28 29 28 29 28 27 27
27 25 23 24 20 21 19 18 18 18 17 17 17 16 14 13 10 10 7 7 8 6 5 5 12 20 25 28 30 31 32 33 30
27 28 26 22 21 21 19 18 19 17 17 16 18 18 15 12 10 9 6 6 6 7 5 5 6 11 13 13 11 22 30 36 35
26 25 24 23 23 19 19 19 18 17 17 19 15 18 17 14 12 11 8 7 7 6 7 8 7 6 11 15 19 23 21 41 38
29 28 27 25 21 20 22 20 16 17 18 18 18 17 19 16 13 11 11 11 11 11 9 9 9 9 9 12 15 22 24 32 40
25 27 28 27 27 26 23 20 23 23 21 20 18 20 22 20 17 15 14 10 10 10 11 10 10 12 12 13 12 13 8 13 16
24 24 26 25 26 24 23 25 24 23 22 21 20 20 22 22 19 16 14 11 9 8 10 12 12 12 11 10 9 10 8 10 8
26 24 23 24 26 26 22 22 23 23 23 21 18 20 20 24 26 21 16 12 12 13 13 15 16 12 7 5 4 3 7 13 18
26 24 23 23 22 25 21 19 22 24 23 20 21 23 23 23 25 22 17 15 13 13 11 12 16 14 9 6 3 0 2 2 8
26 25 25 22 20 20 22 22 19 22 22 13 8 2 8 18 25 22 19 15 11 13 10 9 8 12 12 8 6 5 2 3 5
27 28 27 25 24 22 22 22 20 18 19 23 12 2 4 2 12 25 21 17 14 14 11 11 6 7 10 8 6 6 6 5 3
27 25 25 27 25 23 22 20 22 23 16 17 25 25 4 3 3 8 18 18 17 17 12 9 7 5 6 7 8 6 5 3 1
26 24 24 25 24 24 22 22 18 20 20 17 6 19 16 7 2 2 2 14 18 17 15 10 9 11 5 8 9 8 5 3 2
Wind_Direction
335 336 335 338 327 330 335 337 333 332 311 305 306 288 267 255 245 242 238 234 232 233 224 219 211 212 209 201 198 196 195 193 188
327 331 329 329 328 320 321 324 325 322 320 312 285 280 299 285 262 253 249 242 240 240 240 233 219 216 207 203 203 204 203 198 193
323 322 323 322 322 323 317 311 312 313 314 312 316 287 275 281 294 271 254 249 248 245 241 244 224 218 213 208 205 202 200 196 194
317 319 318 316 316 318 318 317 306 297 304 314 311 312 305 268 272 276 273 261 251 249 249 247 225 220 215 214 209 205 205 204 202
306 310 316 308 311 307 308 312 316 298 288 306 317 315 304 305 264 284 276 272 267 264 249 246 227 223 220 216 212 210 207 207 205
307 306 304 303 305 309 301 300 304 308 300 286 290 299 302 309 317 262 279 271 265 268 264 241 232 230 224 218 216 213 210 213 209
301 296 298 295 298 302 300 302 300 283 284 291 295 287 283 287 295 300 260 287 291 288 279 243 240 235 228 223 220 217 217 212 213
307 300 297 297 300 299 293 298 300 302 285 270 281 283 277 273 276 285 290 286 310 315 298 270 259 238 230 224 222 219 218 216 214
309 307 302 297 290 299 291 289 298 298 294 279 268 262 269 271 268 269 291 316 329 328 328 333 273 243 234 235 234 224 220 217 215
314 311 308 298 298 294 284 295 287 294 294 285 271 256 245 254 267 273 271 305 337 346 343 350 354 268 222 292 306 218 242 220 216
315 310 306 300 300 291 291 291 284 285 290 292 277 254 238 238 253 269 284 287 294 326 341 339 330 330 318 306 317 285 330 218 217
310 308 305 302 300 297 295 284 275 284 286 286 275 255 243 238 241 259 282 284 282 286 300 327 323 314 303 310 321 300 282 220 219
310 307 304 302 299 293 286 278 281 283 276 278 281 267 252 242 242 251 258 265 274 274 283 299 310 310 306 303 302 317 299 312 279
295 298 302 305 302 295 284 279 276 278 271 267 271 278 258 248 240 237 235 234 240 261 289 295 304 309 309 307 297 288 259 256 259
299 289 285 293 297 295 283 275 274 263 266 261 267 271 277 259 248 234 225 229 246 261 280 289 288 294 286 303 327 287 243 224 237
302 293 286 279 276 288 285 278 273 271 253 264 275 268 267 263 240 221 226 240 255 263 255 279 289 275 249 243 263 199 53 183 220
300 294 290 284 275 270 273 279 265 257 254 237 228 268 271 247 237 230 223 230 250 246 255 274 283 251 234 242 240 235 157 105 110
295 295 289 283 275 264 258 264 257 247 243 234 216 160 214 185 219 228 223 224 234 233 244 265 289 235 220 228 224 204 194 148 138
316 304 294 282 275 265 256 256 255 247 238 241 235 236 190 180 190 210 215 221 223 229 247 233 282 282 228 222 194 191 184 188 123
323 314 310 300 280 266 260 250 245 244 234 231 227 216 234 223 129 223 204 209 216 224 226 238 285 268 251 198 191 194 210 254 312